EN

Hourly Weather Alt Landenberg

Today, 20 January, Wednesday

Time Temperature Precipitation Wind Pressure Humidity
00:00 -3°C° 0 mm 2 mps 693 mmHg 74%
01:00 -2°C° 0 mm 1 mps 693 mmHg 76%
02:00 -2°C° 0 mm 1 mps 692 mmHg 76%
03:00 -2°C° 0 mm 1 mps 692 mmHg 75%
04:00 -2°C° 0 mm 1 mps 692 mmHg 75%
05:00 -2°C° 0 mm 1 mps 691 mmHg 76%
06:00 -4°C° 0 mm 2 mps 691 mmHg 76%
07:00 -4°C° 0 mm 2 mps 691 mmHg 76%
08:00 -3°C° 0 mm 2 mps 691 mmHg 77%
09:00 -3°C° 0 mm 2 mps 691 mmHg 78%
10:00 -2°C° 0 mm 2 mps 691 mmHg 78%
11:00 -1°C° 0 mm 2 mps 691 mmHg 81%
12:00 +2°C° 0 mm 1 mps 690 mmHg 83%
13:00 +2°C° 0 mm 2 mps 690 mmHg 87%
14:00 +2°C° 0 mm 2 mps 690 mmHg 87%
15:00 +2°C° 0 mm 2 mps 689 mmHg 87%
16:00 +1°C° 0 mm 2 mps 689 mmHg 87%
17:00 -1°C° 0 mm 2 mps 689 mmHg 86%
18:00 -2°C° 0 mm 2 mps 688 mmHg 85%
19:00 -3°C° 0 mm 2 mps 688 mmHg 84%
20:00 -3°C° 0 mm 2 mps 688 mmHg 84%
21:00 -3°C° 0 mm 2 mps 688 mmHg 83%
22:00 -3°C° 0 mm 2 mps 688 mmHg 83%
23:00 -3°C° 0 mm 2 mps 688 mmHg 84%

Tomorrow, 21 January, Thursday

Time Temperature Precipitation Wind Pressure Humidity
00:00 -3°C° 0 mm 2 mps 688 mmHg 84%
01:00 -3°C° 0 mm 2 mps 687 mmHg 85%
02:00 -3°C° 0 mm 2 mps 687 mmHg 84%
03:00 -2°C° 0 mm 2 mps 687 mmHg 84%
04:00 -2°C° 0 mm 2 mps 687 mmHg 83%
05:00 -2°C° 0 mm 2 mps 687 mmHg 83%
06:00 -2°C° 0 mm 2 mps 687 mmHg 84%
07:00 -3°C° 0 mm 2 mps 687 mmHg 84%
08:00 -2°C° 0 mm 2 mps 687 mmHg 84%
09:00 -1°C° 0 mm 2 mps 687 mmHg 84%
10:00 +1°C° 0 mm 2 mps 687 mmHg 85%
11:00 +2°C° 0 mm 2 mps 687 mmHg 86%
12:00 +3°C° 0 mm 1 mps 687 mmHg 87%
13:00 +4°C° 0 mm 1 mps 687 mmHg 88%
14:00 +4°C° 0 mm 1 mps 686 mmHg 89%
15:00 +4°C° 0 mm 1 mps 686 mmHg 90%
16:00 +3°C° 0 mm 1 mps 686 mmHg 90%
17:00 +3°C° 0 mm 1 mps 685 mmHg 89%
18:00 +1°C° 0 mm 2 mps 685 mmHg 88%
19:00 -1°C° 0 mm 2 mps 685 mmHg 87%
20:00 -1°C° 0 mm 2 mps 685 mmHg 86%
21:00 -1°C° 0 mm 2 mps 684 mmHg 86%
22:00 +1°C° 0 mm 1 mps 684 mmHg 86%
23:00 +1°C° 0 mm 1 mps 684 mmHg 85%

Day after tomorrow, 22 January, Friday

Time Temperature Precipitation Wind Pressure Humidity
00:00 +1°C° 0 mm 1 mps 684 mmHg 85%
01:00 +1°C° 0 mm 1 mps 684 mmHg 84%
02:00 +1°C° 0 mm 1 mps 683 mmHg 85%
03:00 +1°C° 0 mm 1 mps 682 mmHg 85%
04:00 +1°C° 0 mm 1 mps 682 mmHg 85%
05:00 +1°C° 0 mm 1 mps 682 mmHg 85%
06:00 -1°C° 0 mm 2 mps 682 mmHg 85%
07:00 -1°C° 0 mm 2 mps 682 mmHg 85%
08:00 +1°C° 0 mm 2 mps 682 mmHg 86%
09:00 +3°C° 0 mm 1 mps 682 mmHg 86%
10:00 +3°C° 0 mm 1 mps 682 mmHg 87%
11:00 +4°C° 0 mm 1 mps 681 mmHg 89%
12:00 +4°C° 0 mm 1 mps 681 mmHg 90%
13:00 +5°C° 0 mm 1 mps 680 mmHg 91%
14:00 +5°C° 0 mm 1 mps 680 mmHg 92%
15:00 +4°C° 0 mm 1 mps 679 mmHg 93%
16:00 +4°C° 0 mm 1 mps 678 mmHg 94%
17:00 +3°C° 0 mm 1 mps 678 mmHg 94%
18:00 +2°C° 0 mm 1 mps 677 mmHg 94%
19:00 +1°C° 0 mm 1 mps 677 mmHg 93%
20:00 +1°C° 0 mm 1 mps 677 mmHg 94%
21:00 +1°C° 0 mm 1 mps 676 mmHg 94%
22:00 +1°C° 0 mm 1 mps 676 mmHg 95%
23:00 +1°C° 0.3 mm 1 mps 676 mmHg 96%

23 January, Saturday

Time Temperature Precipitation Wind Pressure Humidity
00:00 +1°C° 0.3 mm 1 mps 676 mmHg 97%
01:00 -1°C° 0.3 mm 2 mps 676 mmHg 98%
02:00 -1°C° 1.2 mm 2 mps 676 mmHg 98%
03:00 -1°C° 1.2 mm 2 mps 676 mmHg 98%
04:00 +1°C° 1.2 mm 2 mps 676 mmHg 98%
05:00 -1°C° 1.5 mm 3 mps 677 mmHg 98%
06:00 -2°C° 1.5 mm 4 mps 678 mmHg 97%
07:00 -4°C° 1.5 mm 5 mps 679 mmHg 97%
08:00 -2°C° 0.5 mm 4 mps 679 mmHg 96%
09:00 -1°C° 0.5 mm 3 mps 679 mmHg 95%
10:00 -1°C° 0.5 mm 2 mps 680 mmHg 94%
11:00 -1°C° 0 mm 2 mps 680 mmHg 92%
12:00 +1°C° 0 mm 2 mps 680 mmHg 90%
13:00 +1°C° 0 mm 2 mps 680 mmHg 89%
14:00 +1°C° 0 mm 2 mps 680 mmHg 89%
15:00 +1°C° 0 mm 1 mps 680 mmHg 90%
16:00 +1°C° 0 mm 1 mps 680 mmHg 91%
17:00 0°C° 0 mm 1 mps 680 mmHg 90%
18:00 -1°C° 0 mm 1 mps 680 mmHg 89%
19:00 -2°C° 0 mm 1 mps 681 mmHg 88%
20:00 -2°C° 0 mm 1 mps 681 mmHg 87%
21:00 -2°C° 0 mm 1 mps 681 mmHg 86%
22:00 -3°C° 0 mm 1 mps 681 mmHg 86%
23:00 -3°C° 0.1 mm 1 mps 681 mmHg 86%

24 January, Sunday

Time Temperature Precipitation Wind Pressure Humidity
00:00 -3°C° 0.1 mm 1 mps 681 mmHg 87%
01:00 -2°C° 0.1 mm 1 mps 681 mmHg 88%
02:00 -4°C° 0.3 mm 2 mps 681 mmHg 89%
03:00 -5°C° 0.3 mm 3 mps 681 mmHg 91%
04:00 -5°C° 0.3 mm 3 mps 682 mmHg 93%
05:00 -5°C° 0.1 mm 3 mps 682 mmHg 93%
06:00 -5°C° 0.1 mm 3 mps 682 mmHg 93%
07:00 -5°C° 0.1 mm 2 mps 683 mmHg 94%
08:00 -4°C° 0 mm 2 mps 683 mmHg 92%
09:00 -4°C° 0 mm 2 mps 683 mmHg 91%
10:00 -4°C° 0 mm 2 mps 684 mmHg 89%
11:00 -3°C° 0 mm 2 mps 683 mmHg 87%
12:00 -2°C° 0 mm 2 mps 683 mmHg 84%
13:00 -2°C° 0 mm 2 mps 683 mmHg 81%
14:00 0°C° 0 mm 1 mps 683 mmHg 84%
15:00 0°C° 0 mm 1 mps 683 mmHg 86%
16:00 -1°C° 0 mm 0 mps 683 mmHg 88%
17:00 -1°C° 0 mm 1 mps 683 mmHg 89%
18:00 -2°C° 0 mm 1 mps 683 mmHg 90%
19:00 -3°C° 0 mm 1 mps 683 mmHg 91%
20:00 -3°C° 0.1 mm 1 mps 683 mmHg 91%
21:00 -3°C° 0.1 mm 1 mps 683 mmHg 91%
22:00 -3°C° 0.1 mm 1 mps 683 mmHg 92%
23:00 -3°C° 1.1 mm 1 mps 684 mmHg 93%

25 January, Monday

Time Temperature Precipitation Wind Pressure Humidity
00:00 -2°C° 1.1 mm 1 mps 684 mmHg 95%
01:00 -4°C° 1.1 mm 2 mps 684 mmHg 97%
02:00 -4°C° 1 mm 2 mps 684 mmHg 96%
03:00 -4°C° 1 mm 2 mps 685 mmHg 96%
04:00 -4°C° 1 mm 2 mps 685 mmHg 96%
05:00 -5°C° 0.4 mm 3 mps 686 mmHg 96%
06:00 -6°C° 0.4 mm 3 mps 686 mmHg 95%
07:00 -6°C° 0.4 mm 3 mps 687 mmHg 95%
08:00 -6°C° 0.2 mm 3 mps 688 mmHg 93%
09:00 -5°C° 0.2 mm 4 mps 688 mmHg 91%
10:00 -5°C° 0.2 mm 4 mps 689 mmHg 88%
11:00 -5°C° 0.1 mm 4 mps 689 mmHg 88%
12:00 -4°C° 0.1 mm 4 mps 690 mmHg 87%
13:00 -5°C° 0.1 mm 5 mps 690 mmHg 86%
14:00 -4°C° 0.6 mm 4 mps 690 mmHg 89%
15:00 -4°C° 0.6 mm 4 mps 690 mmHg 92%
16:00 -4°C° 0.6 mm 4 mps 691 mmHg 94%
17:00 -4°C° 0.5 mm 4 mps 691 mmHg 94%
18:00 -5°C° 0.5 mm 4 mps 692 mmHg 94%
19:00 -5°C° 0.5 mm 4 mps 692 mmHg 94%
20:00 -5°C° 0.5 mm 4 mps 693 mmHg 94%
21:00 -5°C° 0.5 mm 4 mps 693 mmHg 94%
22:00 -5°C° 0.5 mm 4 mps 694 mmHg 94%
23:00 -5°C° 0.2 mm 4 mps 694 mmHg 93%
Show more